Weather History for Ashland, WI

Change the Weather History Date:

Thursday, October 11, 2012

  Actual Average Record
Temperature  
Mean Temperature 39 °F -  
Max Temperature 45 °F 59 °F 78 °F (1955)
Min Temperature 33 °F 36 °F 24 °F (1987)
Degree Days  
Heating Degree Days 26    
Moisture  
Dew Point 31 °F    
Average Humidity 81    
Maximum Humidity 96    
Minimum Humidity 49    
Precipitation  
Precipitation 0.00 in - - ()
Sea Level Pressure  
Sea Level Pressure 30.07 in    
Wind  
Wind Speed 5 mph (WNW)    
Max Wind Speed 18 mph    
Max Gust Speed 28 mph    
Visibility 8 miles    
Events Rain    
Averages and records for this station are not official NWS values.
T = Trace of Precipitation, MM = Missing Value Source: NWS Daily Summary

Daily Weather History Graph

Daily Weather History Graph

Search for Another Location

Airport:

Trip Planner

Search our weather history database for the weather conditions in past years. The results will help you decide how hot, cold, wet, or windy it might be!

Date:

Astronomy

Oct. 11, 2012 Rise Set
Actual Time 7:16 AM CDT 6:23 PM CDT
Civil Twilight 6:46 AM CDT 6:53 PM CDT
Nautical Twilight 6:11 AM CDT 7:28 PM CDT
Astronomical Twilight 5:36 AM CDT 8:03 PM CDT
Moon 2:41 AM CDT (10/11) 4:11 PM CDT (10/11)
Length of Visible Light 12h 07m
Length of Day
11h 06m
Waning Crescent, 18% of the Moon is Illuminated
Oct 11
Waning Crescent
Oct 15
New
Oct 21
First Quarter
Oct 29
Full
Nov 6
Last Quarter

Hourly Weather History & Observations

Time (CDT) Temp. Windchill Dew Point Humidity Pressure Visibility Wind Dir Wind Speed Gust Speed Precip Events Conditions
12:48 AM 35.6 °F 31.7 °F 33.8 °F 93% 29.96 in 6.0 mi WSW 4.6 mph - 0.00 in   Overcast
12:53 AM 36.0 °F 33.3 °F 34.0 °F 93% 29.98 in 6.0 mi WSW 3.5 mph - 0.00 in Rain Light Rain
1:04 AM 35.6 °F - 33.8 °F 93% 29.95 in 6.0 mi Calm Calm - 0.00 in Rain Light Rain
1:33 AM 35.6 °F - 33.8 °F 93% 29.93 in 5.0 mi Calm Calm - 0.00 in Rain Light Rain
1:53 AM 35.1 °F - 34.0 °F 96% 29.95 in 5.0 mi Calm Calm - 0.00 in   Overcast
2:53 AM 35.1 °F - 34.0 °F 96% 29.93 in 5.0 mi Calm Calm - 0.00 in   Overcast
3:07 AM 35.6 °F - 33.8 °F 93% 29.90 in 5.0 mi Calm Calm - 0.00 in   Overcast
3:24 AM 35.6 °F - 33.8 °F 93% 29.90 in 5.0 mi Calm Calm - 0.00 in   Overcast
3:53 AM 35.1 °F - 34.0 °F 96% 29.92 in 6.0 mi Calm Calm - 0.00 in   Overcast
4:11 AM 35.6 °F - 33.8 °F 93% 29.90 in 6.0 mi Calm Calm - 0.00 in   Overcast
4:48 AM 35.6 °F 32.8 °F 33.8 °F 93% 29.91 in 6.0 mi NW 3.5 mph - 0.00 in   Overcast
4:53 AM 35.1 °F 31.0 °F 33.1 °F 92% 29.94 in 5.0 mi NW 4.6 mph - 0.00 in   Overcast
5:53 AM 34.0 °F 29.8 °F 33.1 °F 96% 29.96 in 7.0 mi West 4.6 mph - 0.00 in   Overcast
6:53 AM 34.0 °F 29.8 °F 32.0 °F 92% 29.98 in 10.0 mi West 4.6 mph - N/A   Overcast
7:53 AM 33.1 °F 27.7 °F 30.9 °F 92% 30.00 in 10.0 mi WSW 5.8 mph - N/A   Partly Cloudy
8:53 AM 37.0 °F 30.4 °F 34.0 °F 89% 30.03 in 10.0 mi WNW 9.2 mph - N/A   Clear
9:50 AM 37.4 °F 29.3 °F 33.8 °F 87% 30.03 in 10.0 mi WNW 12.7 mph 17.3 mph N/A   Mostly Cloudy
9:53 AM 37.9 °F 30.0 °F 33.1 °F 83% 30.06 in 10.0 mi WNW 12.7 mph 19.6 mph N/A   Mostly Cloudy
10:00 AM 39.2 °F 32.5 °F 33.8 °F 81% 30.03 in 10.0 mi WNW 10.4 mph 19.6 mph N/A   Scattered Clouds
10:17 AM 37.4 °F 31.4 °F 33.8 °F 87% 30.05 in 10.0 mi WNW 8.1 mph 16.1 mph N/A   Mostly Cloudy
10:53 AM 39.9 °F 32.5 °F 30.9 °F 70% 30.09 in 10.0 mi West 12.7 mph 19.6 mph N/A   Mostly Cloudy
11:53 AM 42.1 °F 34.5 °F 30.0 °F 62% 30.12 in 10.0 mi WNW 15.0 mph 27.6 mph N/A   Mostly Cloudy
12:44 PM 42.8 °F 34.5 °F 28.4 °F 57% 30.10 in 10.0 mi NW 18.4 mph 24.2 mph N/A   Mostly Cloudy
12:53 PM 45.0 °F 37.6 °F 28.9 °F 53% 30.13 in 10.0 mi WNW 17.3 mph 26.5 mph N/A   Mostly Cloudy
1:53 PM 41.0 °F 33.9 °F 26.1 °F 55% 30.16 in 10.0 mi NW 12.7 mph 27.6 mph N/A   Mostly Cloudy
2:53 PM 45.0 °F 38.9 °F 27.0 °F 49% 30.18 in 10.0 mi NW 12.7 mph 20.7 mph N/A   Overcast
3:53 PM 44.1 °F 38.1 °F 26.1 °F 49% 30.19 in 10.0 mi West 11.5 mph 23.0 mph N/A   Clear
5:53 PM 39.9 °F 33.9 °F 27.0 °F 60% 30.24 in 10.0 mi NW 9.2 mph - N/A   Mostly Cloudy
6:53 PM 37.9 °F 34.4 °F 28.0 °F 68% 30.27 in 10.0 mi NW 4.6 mph - N/A   Overcast
8:53 PM 36.0 °F 32.1 °F 28.9 °F 76% 30.32 in 10.0 mi WNW 4.6 mph - N/A   Overcast
9:53 PM 37.0 °F 33.3 °F 28.9 °F 73% 30.34 in 10.0 mi WNW 4.6 mph - N/A   Overcast
10:53 PM 36.0 °F 33.3 °F 28.9 °F 76% 30.36 in 10.0 mi West 3.5 mph - N/A   Overcast
11:53 PM 33.1 °F 27.7 °F 27.0 °F 78% 30.38 in 10.0 mi West 5.8 mph - N/A   Mostly Cloudy